Hourly Weather Luksor

Today, 26 November, Thursday

Time Temperature Precipitation Wind Pressure Humidity
00:00 +16°C° 0 mm 2 mps 753 mmHg 67%
01:00 +16°C° 0 mm 2 mps 752 mmHg 69%
02:00 +16°C° 0 mm 2 mps 752 mmHg 70%
03:00 +15°C° 0 mm 2 mps 752 mmHg 73%
04:00 +14°C° 0 mm 2 mps 753 mmHg 76%
05:00 +14°C° 0 mm 2 mps 753 mmHg 79%
06:00 +15°C° 0 mm 2 mps 753 mmHg 73%
07:00 +17°C° 0 mm 2 mps 754 mmHg 66%
08:00 +19°C° 0 mm 1 mps 754 mmHg 59%
09:00 +20°C° 0 mm 2 mps 754 mmHg 52%
10:00 +21°C° 0 mm 3 mps 754 mmHg 44%
11:00 +23°C° 0 mm 4 mps 754 mmHg 36%
12:00 +25°C° 0 mm 4 mps 753 mmHg 34%
13:00 +26°C° 0 mm 4 mps 753 mmHg 31%
14:00 +26°C° 0 mm 5 mps 752 mmHg 29%
15:00 +25°C° 0 mm 4 mps 752 mmHg 31%
16:00 +22°C° 0 mm 3 mps 752 mmHg 34%
17:00 +21°C° 0 mm 3 mps 752 mmHg 37%
18:00 +20°C° 0 mm 3 mps 753 mmHg 41%
19:00 +19°C° 0 mm 3 mps 753 mmHg 45%
20:00 +18°C° 0 mm 3 mps 753 mmHg 48%
21:00 +17°C° 0 mm 3 mps 753 mmHg 51%
22:00 +17°C° 0 mm 3 mps 754 mmHg 55%
23:00 +16°C° 0 mm 3 mps 754 mmHg 58%

Tomorrow, 27 November, Friday

Time Temperature Precipitation Wind Pressure Humidity
00:00 +15°C° 0 mm 2 mps 754 mmHg 61%
01:00 +15°C° 0 mm 2 mps 753 mmHg 64%
02:00 +14°C° 0 mm 2 mps 753 mmHg 68%
03:00 +13°C° 0 mm 2 mps 753 mmHg 69%
04:00 +13°C° 0 mm 2 mps 754 mmHg 71%
05:00 +12°C° 0 mm 1 mps 754 mmHg 73%
06:00 +14°C° 0 mm 2 mps 754 mmHg 66%
07:00 +15°C° 0 mm 2 mps 754 mmHg 59%
08:00 +17°C° 0 mm 2 mps 755 mmHg 52%
09:00 +19°C° 0 mm 2 mps 754 mmHg 46%
10:00 +20°C° 0 mm 3 mps 754 mmHg 40%
11:00 +22°C° 0 mm 3 mps 754 mmHg 34%
12:00 +23°C° 0 mm 4 mps 753 mmHg 31%
13:00 +25°C° 0 mm 4 mps 753 mmHg 28%
14:00 +26°C° 0 mm 4 mps 752 mmHg 25%
15:00 +23°C° 0 mm 4 mps 752 mmHg 27%
16:00 +22°C° 0 mm 4 mps 752 mmHg 29%
17:00 +21°C° 0 mm 4 mps 752 mmHg 31%
18:00 +20°C° 0 mm 4 mps 753 mmHg 35%
19:00 +18°C° 0 mm 4 mps 753 mmHg 40%
20:00 +17°C° 0 mm 4 mps 754 mmHg 45%
21:00 +17°C° 0 mm 4 mps 754 mmHg 49%
22:00 +16°C° 0 mm 3 mps 754 mmHg 52%
23:00 +14°C° 0 mm 3 mps 754 mmHg 56%

Day after tomorrow, 28 November, Saturday

Time Temperature Precipitation Wind Pressure Humidity
00:00 +14°C° 0 mm 2 mps 754 mmHg 59%
01:00 +14°C° 0 mm 2 mps 754 mmHg 62%
02:00 +13°C° 0 mm 2 mps 754 mmHg 64%
03:00 +13°C° 0 mm 2 mps 754 mmHg 67%
04:00 +12°C° 0 mm 2 mps 754 mmHg 69%
05:00 +12°C° 0 mm 2 mps 754 mmHg 71%
06:00 +14°C° 0 mm 2 mps 755 mmHg 65%
07:00 +15°C° 0 mm 2 mps 755 mmHg 59%
08:00 +16°C° 0 mm 2 mps 755 mmHg 54%
09:00 +18°C° 0 mm 3 mps 755 mmHg 48%
10:00 +20°C° 0 mm 5 mps 755 mmHg 42%
11:00 +22°C° 0 mm 6 mps 755 mmHg 36%
12:00 +23°C° 0 mm 6 mps 754 mmHg 33%
13:00 +24°C° 0 mm 6 mps 754 mmHg 29%
14:00 +26°C° 0 mm 6 mps 753 mmHg 25%
15:00 +25°C° 0 mm 5 mps 753 mmHg 29%
16:00 +22°C° 0 mm 5 mps 753 mmHg 33%
17:00 +21°C° 0 mm 5 mps 753 mmHg 38%
18:00 +20°C° 0 mm 4 mps 754 mmHg 41%
19:00 +19°C° 0 mm 4 mps 754 mmHg 45%
20:00 +18°C° 0 mm 4 mps 755 mmHg 48%
21:00 +17°C° 0 mm 3 mps 755 mmHg 52%
22:00 +16°C° 0 mm 3 mps 755 mmHg 55%
23:00 +15°C° 0 mm 2 mps 755 mmHg 59%

29 November, Sunday

Time Temperature Precipitation Wind Pressure Humidity
00:00 +15°C° 0 mm 2 mps 755 mmHg 63%
01:00 +14°C° 0 mm 2 mps 754 mmHg 67%
02:00 +13°C° 0 mm 1 mps 754 mmHg 72%
03:00 +13°C° 0 mm 1 mps 754 mmHg 73%
04:00 +12°C° 0 mm 1 mps 754 mmHg 75%
05:00 +12°C° 0 mm 1 mps 755 mmHg 77%
06:00 +13°C° 0 mm 1 mps 755 mmHg 70%
07:00 +15°C° 0 mm 1 mps 755 mmHg 64%
08:00 +18°C° 0 mm 1 mps 756 mmHg 57%
09:00 +20°C° 0 mm 1 mps 755 mmHg 50%
10:00 +21°C° 0 mm 1 mps 755 mmHg 42%
11:00 +23°C° 0 mm 1 mps 755 mmHg 35%
12:00 +24°C° 0 mm 1 mps 754 mmHg 31%
13:00 +25°C° 0 mm 1 mps 754 mmHg 27%
14:00 +26°C° 0 mm 1 mps 753 mmHg 23%
15:00 +24°C° 0 mm 1 mps 753 mmHg 27%
16:00 +22°C° 0 mm 1 mps 753 mmHg 30%
17:00 +20°C° 0 mm 1 mps 753 mmHg 34%
18:00 +19°C° 0 mm 1 mps 753 mmHg 36%
19:00 +19°C° 0 mm 1 mps 754 mmHg 37%
20:00 +18°C° 0 mm 1 mps 754 mmHg 38%
21:00 +16°C° 0 mm 1 mps 754 mmHg 43%
22:00 +15°C° 0 mm 1 mps 754 mmHg 48%
23:00 +15°C° 0 mm 1 mps 754 mmHg 53%

30 November, Monday

Time Temperature Precipitation Wind Pressure Humidity
00:00 +15°C° 0 mm 1 mps 754 mmHg 52%
01:00 +14°C° 0 mm 1 mps 753 mmHg 50%
02:00 +14°C° 0 mm 2 mps 753 mmHg 49%
03:00 +13°C° 0 mm 1 mps 753 mmHg 51%
04:00 +13°C° 0 mm 1 mps 753 mmHg 52%
05:00 +12°C° 0 mm 1 mps 753 mmHg 54%
06:00 +14°C° 0 mm 1 mps 753 mmHg 47%
07:00 +16°C° 0 mm 1 mps 754 mmHg 40%
08:00 +19°C° 0 mm 1 mps 754 mmHg 34%
09:00 +21°C° 0 mm 1 mps 754 mmHg 30%
10:00 +21°C° 0 mm 0 mps 754 mmHg 27%
11:00 +23°C° 0 mm 0 mps 753 mmHg 24%
12:00 +26°C° 0 mm 1 mps 753 mmHg 22%
13:00 +27°C° 0 mm 1 mps 752 mmHg 19%
14:00 +28°C° 0 mm 1 mps 752 mmHg 17%
15:00 +26°C° 0 mm 1 mps 752 mmHg 19%
16:00 +23°C° 0 mm 2 mps 751 mmHg 22%
17:00 +20°C° 0 mm 2 mps 751 mmHg 24%
18:00 +19°C° 0 mm 2 mps 752 mmHg 25%
19:00 +18°C° 0 mm 2 mps 752 mmHg 26%
20:00 +17°C° 0 mm 2 mps 752 mmHg 27%
21:00 +17°C° 0 mm 2 mps 752 mmHg 27%
22:00 +16°C° 0 mm 2 mps 752 mmHg 27%
23:00 +16°C° 0 mm 2 mps 752 mmHg 27%

1 December, Tuesday

Time Temperature Precipitation Wind Pressure Humidity
00:00 +15°C° 0 mm 1 mps 752 mmHg 28%
01:00 +15°C° 0 mm 1 mps 752 mmHg 30%
02:00 +14°C° 0 mm 1 mps 752 mmHg 31%
03:00 +14°C° 0 mm 1 mps 752 mmHg 32%
04:00 +13°C° 0 mm 1 mps 752 mmHg 32%
05:00 +13°C° 0 mm 1 mps 752 mmHg 33%
06:00 +15°C° 0 mm 1 mps 752 mmHg 30%
07:00 +17°C° 0 mm 2 mps 753 mmHg 28%
08:00 +19°C° 0 mm 2 mps 753 mmHg 25%
09:00 +21°C° 0 mm 3 mps 753 mmHg 24%
10:00 +22°C° 0 mm 4 mps 752 mmHg 22%
11:00 +25°C° 0 mm 5 mps 752 mmHg 21%
12:00 +26°C° 0 mm 5 mps 752 mmHg 19%
13:00 +26°C° 0 mm 6 mps 751 mmHg 17%
14:00 +27°C° 0 mm 6 mps 751 mmHg 15%
15:00 +25°C° 0 mm 5 mps 751 mmHg 18%
16:00 +22°C° 0 mm 5 mps 751 mmHg 22%
17:00 +21°C° 0 mm 4 mps 751 mmHg 25%
18:00 +19°C° 0 mm 4 mps 751 mmHg 29%
19:00 +18°C° 0 mm 3 mps 752 mmHg 33%
20:00 +17°C° 0 mm 3 mps 752 mmHg 37%
21:00 +16°C° 0 mm 3 mps 752 mmHg 41%
22:00 +16°C° 0 mm 2 mps 753 mmHg 46%
23:00 +15°C° 0 mm 2 mps 753 mmHg 50%
Show more

We Need Your Consent

Meteoprog and our Service Providers may store and access personal data such as cookies, device identifiers or other similar technologies on your device and process such data to personalise content and ads, as well as provide social media features and to analyse the traffic.

  • Store and/or access information on your device

    Cookies, device identifiers or other information can be stored or accessed on your device for the purposes indicated above.

  • Personalised ads and content, ad and content measurement, audience insights, and products development

    Ads and content can be personalised based on a profile. More data can be added to better personalise ads and content. Ad and content performance can be measured. Insights about the audience who saw the ads and content can be derived. Such data can be used to develop or improve user’s experience, systems and software.

By clicking ‘I Agree’ you will allow the use of indicated cookies, device identifiers, web beacons or other similar technologies. Your settings can be changed in the browser on your device.

For certain purposes, legitimate interests may be relied on, rather than consent. You can read more about this in our Privacy and Cookie Policy.